GSAT-10

Last updated on Mon Sep 14 2026 00:02:58 GMT+0000 (Coordinated Universal Time)

1 38779U 12051B 26256.59370056 -.00000176 00000+0 00000+0 0 9992 2 38779 0.0518 269.2649 0005627 203.0770 176.9719 1.00273380 50983
UTC large
Height (km)
Speed (km/s)
/
Latitude / Longitude
Inclination (degrees)
Orbital Period (minutes)
Azimuth
Elevation
Range (km)
Doppler Factor

Next 0 passes for location: London (51.5072 / 0.1276)

No passes found over London.
GSAT-10